[[{"header":{"parameterUnit":"m.s-1","parameterCategory":2,"la1":30.2991,"la2":30.254,"lo1":-89.0895,"lo2":-89.0444,"dy":0.0017,"dx":0.0017,"nx":28,"ny":28,"refTime":"2023-10-22T21:00:00:Z","depth":"0","parameterNumber":2,"parameterNumberName":"U-component_of_CURRENTS"},"data":[0,0,0,0,0,0,0,0,0,0,0,0,0,0,0,0,0,0,0,0,0,0,0,0,0,0,0,0,0,0,0,0,0,0,0,0,0,0,0,0,0,0,0,0,0,0,0,0,0,0,0,0,0,0,0,0,0,0,0.2237,0.2237,0,0.2159,0.2158,0.2157,0.21,0.21,0.21,0.21,0.2022,0.202,0.2018,0,0,0,0,0,0,0,0,0,0,0,0,0,0.233,0.2328,0.2238,0.2237,0.2236,0.2159,0.2158,0.2156,0.2101,0.21,0.21,0.21,0.2022,0.202,0.2018,0,0,0,0,0,0,0,0,0,0,0,0,0,0.2272,0.2327,0.2238,0.2201,0.2197,0.2159,0.2158,0.2156,0.2101,0.21,0.21,0.21,0.2023,0.202,0.2017,0.2006,0,0,0.2009,0.2007,0,0,0,0,0,0,0,0,0.2275,0.2268,0.2207,0.2203,0.2199,0.2142,0.2162,0.2107,0.2101,0.2134,0.21,0.21,0.2064,0.2058,0.204,0.2002,0.1999,0.2008,0.2007,0.2005,0.2005,0,0,0,0,0,0,0,0.2279,0.2271,0.2204,0.2206,0.2202,0.2185,0.2177,0.2151,0.21,0.2131,0.2128,0.2124,0.2061,0.2042,0.2037,0.1998,0.2009,0.2006,0.2004,0.2003,0.2001,0.2002,0,0,0,0,0,0,0.2295,0.2275,0.2206,0.2202,0.224,0.2184,0.2174,0.2158,0.21,0.2091,0.2124,0.2121,0.2047,0.2041,0.2034,0.2037,0.2006,0.2003,0.2001,0.1999,0.2001,0.2003,0,0,0,0,0,0,0.2297,0.2289,0.2209,0.2239,0.2228,0.2183,0.2165,0.2157,0.2141,0.2095,0.2085,0.2118,0.2047,0.2038,0.2024,0.2033,0.2002,0.1999,0.1997,0.2,0.2002,0.203,0,0,0,0,0,0,0.23,0.229,0.2282,0.224,0.2227,0.2189,0.2166,0.2156,0.214,0.2136,0.2087,0.2079,0.2046,0.2029,0.2022,0.2028,0.1997,0.1995,0.1998,0.2001,0.2027,0.2033,0.2038,0,0,0,0,0,0.2303,0.229,0.2282,0.2274,0.2218,0.219,0.2181,0.2147,0.2141,0.2132,0.211,0.208,0.2044,0.2027,0.2018,0.2025,0.1994,0.1997,0.2001,0.2024,0.2031,0.2038,0,0,0,0,0,0,0.2325,0.2283,0.2273,0.2247,0.2225,0.2181,0.2169,0.2155,0.2129,0.2129,0.2089,0.2079,0.208,0.2055,0.2038,0.204,0.2019,0.2021,0.204,0.2046,0.2052,0.2118,0.1994,0,0,0,0,0,0.2329,0.2308,0.2274,0.2256,0.2246,0.2213,0.2198,0.218,0.2154,0.2142,0.211,0.2092,0.2088,0.2068,0.2059,0.2043,0.2086,0.205,0.2055,0.206,0.2112,0.2187,0.2205,0.2015,0.2015,0.2015,0,0,0.2332,0.2309,0.2295,0.2261,0.2238,0.2222,0.2202,0.2184,0.2179,0.2139,0.2121,0.2113,0.2095,0.2088,0.2085,0.2062,0.2132,0.2065,0.2068,0.2119,0.2193,0.2212,0.2228,0.2018,0.2017,0.2017,0,0,0.2329,0.231,0.229,0.2274,0.225,0.2234,0.2235,0.2199,0.2191,0.2173,0.2166,0.2185,0.2126,0.2145,0.214,0.218,0.2172,0.215,0.221,0.228,0.2297,0.2312,0.2371,0.2392,0.2136,0.2136,0.2136,0,0.2336,0.23,0.2283,0.2266,0.2248,0.2243,0.2224,0.2224,0.2192,0.2195,0.2173,0.2178,0.2171,0.2203,0.2228,0.2196,0.2223,0.2173,0.2289,0.2305,0.232,0.2377,0.24,0.2138,0.2138,0.2138,0.2138,0,0.2315,0.2289,0.228,0.2253,0.2243,0.2224,0.2224,0.2227,0.2218,0.2215,0.2244,0.2251,0.2258,0.2257,0.2254,0.235,0.233,0.2296,0.227,0.2341,0.2396,0.2419,0.2141,0.214,0.2139,0.2139,0,0,0.2304,0.2268,0.2263,0.2243,0.2228,0.2214,0.2232,0.2234,0.2252,0.2255,0.2279,0.2325,0.2346,0.2354,0.2357,0.2434,0.2569,0.2416,0.2418,0.2475,0.2717,0.2653,0.2671,0.2535,0.254,0.2543,0.2704,0,0.2283,0.2246,0.2235,0.2205,0.218,0.219,0.2203,0.2222,0.2237,0.2267,0.2326,0.2353,0.2372,0.2382,0.2471,0.2547,0.2634,0.253,0.2643,0.2648,0.2583,0.2698,0.2553,0.268,0.2726,0.273,0.2733,0,0.2248,0.2227,0.2189,0.2167,0.2159,0.2152,0.2171,0.2186,0.2255,0.227,0.2334,0.2371,0.2506,0.2499,0.2704,0.2624,0.2704,0.2764,0.2769,0.2732,0.2629,0.2623,0.272,0.2577,0.2768,0.2765,0.2762,0,0.2223,0.2187,0.2154,0.2143,0.2132,0.2126,0.2132,0.2181,0.2197,0.2289,0.2312,0.2446,0.2507,0.2652,0.2785,0.2752,0.2997,0.2945,0.2969,0.2963,0.2883,0.2862,0.2865,0.3123,0.3123,0.3122,0.3122,0,0.2185,0.2155,0.2137,0.2115,0.2082,0.2099,0.2093,0.2124,0.2186,0.2217,0.2319,0.2374,0.2553,0.2686,0.2816,0.2969,0.3019,0.3043,0.3025,0.2883,0.2862,0.2766,0.2688,0.3128,0.3127,0.3126,0.3125,0,0.2143,0.2137,0.2089,0.2071,0.2059,0.2038,0.2035,0.2051,0.2121,0.2172,0.2206,0.2347,0.2523,0.2689,0.2919,0.2984,0.3043,0.3179,0.2997,0.2957,0.2829,0.2758,0.2757,0.2685,0.3255,0.3254,0.3254,0,0.211,0.2082,0.2039,0.201,0.1988,0.1964,0.1954,0.2002,0.2023,0.2149,0.2175,0.2347,0.2451,0.2749,0.2921,0.3134,0.302,0.3091,0.3028,0.2855,0.2764,0.2659,0.259,0.2927,0.2924,0.2922,0.292,0,0.2036,0.2025,0.1995,0.1932,0.1898,0.1861,0.1853,0.1866,0.1951,0.2009,0.2109,0.2207,0.2472,0.2614,0.2861,0.2976,0.2882,0.3048,0.2926,0.2585,0.242,0.2326,0.2775,0.2899,0.2901,0.2903,0.2904,0.2905,0.1973,0.1934,0.1895,0.1831,0.1793,0.1752,0.1716,0.1757,0.1787,0.1876,0.2008,0.2134,0.2319,0.265,0.2743,0.2745,0.2772,0.2667,0.2624,0.2556,0.2401,0.2807,0.286,0.2862,0.2864,0.2865,0.2866,0,0.1868,0.1842,0.179,0.1704,0.1635,0.1649,0.1636,0.162,0.1642,0.1782,0.187,0.2044,0.2154,0.2311,0.2398,0.2323,0.2272,0.2228,0.2035,0.2014,0.2427,0.2321,0.2189,0.2189,0.219,0.219,0.219,0.219,0.1812,0.1736,0.1712,0.1563,0.1511,0.1408,0.1397,0.1414,0.1487,0.1592,0.1694,0.1828,0.1935,0.194,0.1878,0.1873,0.1721,0.1634,0.1656,0.1894,0.193,0.1964,0.1847,0.1617,0.1617,0.1165,0.116,0.1157]},{"header":{"parameterUnit":"m.s-1","parameterCategory":2,"la1":30.2991,"la2":30.254,"lo1":-89.0895,"lo2":-89.0444,"dy":0.0017,"dx":0.0017,"nx":28,"ny":28,"refTime":"2023-10-22T21:00:00:Z","depth":"0","parameterNumber":3,"parameterNumberName":"V-component_of_CURRENTS"},"data":[0,0,0,0,0,0,0,0,0,0,0,0,0,0,0,0,0,0,0,0,0,0,0,0,0,0,0,0,0,0,0,0,0,0,0,0,0,0,0,0,0,0,0,0,0,0,0,0,0,0,0,0,0,0,0,0,0,0,0.0316,0.0316,0,0.0257,0.0256,0.0255,0.0195,0.0194,0.0194,0.0193,0.0083,0.0081,0.0078,0,0,0,0,0,0,0,0,0,0,0,0,0,0.0328,0.0328,0.0316,0.0316,0.0315,0.0257,0.0256,0.0255,0.0195,0.0194,0.0194,0.0193,0.0084,0.0081,0.0078,0,0,0,0,0,0,0,0,0,0,0,0,0,0.0298,0.0328,0.0316,0.028,0.0277,0.0257,0.0256,0.0254,0.0195,0.0194,0.0193,0.0193,0.0085,0.0081,0.0078,0.0071,0,0,0.0067,0.0065,0,0,0,0,0,0,0,0,0.03,0.0298,0.0286,0.0283,0.0279,0.0235,0.022,0.0192,0.0195,0.0223,0.0193,0.0192,0.0132,0.0124,0.0111,0.0066,0.0061,0.0066,0.0064,0.0063,0.0062,0,0,0,0,0,0,0,0.0302,0.03,0.0289,0.0286,0.0281,0.0251,0.0246,0.0214,0.0179,0.022,0.0217,0.0215,0.0129,0.0115,0.0108,0.006,0.0066,0.0063,0.0061,0.006,0.0021,0.0022,0,0,0,0,0,0,0.0319,0.0302,0.0291,0.0288,0.0291,0.0252,0.0246,0.0247,0.0181,0.0171,0.0216,0.0213,0.0122,0.0113,0.0104,0.0127,0.0063,0.0059,0.0057,0.002,0.0021,0.0023,0,0,0,0,0,0,0.032,0.0319,0.0294,0.0296,0.0291,0.0253,0.0255,0.0247,0.0235,0.0178,0.0167,0.0213,0.0121,0.0109,0.0079,0.0121,0.0058,0.0054,0.0019,0.002,0.0022,0.0151,0,0,0,0,0,0,0.0321,0.032,0.0324,0.0297,0.0291,0.0293,0.0256,0.0246,0.0236,0.0231,0.0172,0.0161,0.0119,0.0085,0.0075,0.0115,0.0051,0.0017,0.0019,0.0021,0.0146,0.0157,0.0167,0,0,0,0,0,0.0321,0.0331,0.0324,0.0323,0.0299,0.0294,0.0288,0.0256,0.0237,0.024,0.0196,0.0162,0.0092,0.0082,0.0071,0.0111,0.0016,0.0019,0.0021,0.0141,0.0155,0.0167,0,0,0,0,0,0,0.0331,0.0326,0.0317,0.0323,0.0316,0.0285,0.0284,0.0265,0.0232,0.0228,0.0168,0.0154,0.0149,0.0106,0.0096,0.0105,0.0053,0.0054,0.0148,0.0161,0.0171,0.0231,0.0048,0,0,0,0,0,0.034,0.0348,0.0337,0.0342,0.0344,0.0317,0.031,0.0295,0.0266,0.0251,0.0209,0.017,0.0152,0.0136,0.0106,0.0103,0.009,0.0123,0.0134,0.0143,0.0184,0.022,0.024,0.0031,0.0031,0.0031,0,0,0.0345,0.0343,0.0346,0.0345,0.0336,0.0351,0.031,0.0313,0.0326,0.0244,0.0241,0.0205,0.0159,0.0162,0.0156,0.013,0.0184,0.0147,0.0156,0.0192,0.0225,0.0246,0.0265,0.0033,0.0033,0.0032,0,0,0.0363,0.0362,0.0378,0.0384,0.0385,0.0376,0.0383,0.0364,0.0358,0.0348,0.0308,0.0309,0.0245,0.0251,0.0238,0.0292,0.0242,0.0265,0.0369,0.0404,0.0422,0.0439,0.0405,0.0417,0.027,0.027,0.027,0,0.0367,0.0391,0.0381,0.0404,0.0419,0.0395,0.0425,0.0421,0.0392,0.041,0.0361,0.0348,0.0305,0.0355,0.037,0.0326,0.0304,0.0324,0.0423,0.0439,0.0453,0.0415,0.0427,0.0277,0.0276,0.0275,0.0275,0,0.0403,0.0426,0.0441,0.0467,0.048,0.0503,0.0509,0.0521,0.0506,0.0508,0.0544,0.0498,0.0501,0.0486,0.0439,0.0529,0.0463,0.0435,0.0399,0.0483,0.0435,0.0445,0.0286,0.0284,0.0282,0.028,0,0,0.0403,0.0456,0.0462,0.0498,0.0522,0.0542,0.0582,0.0625,0.067,0.0656,0.0722,0.071,0.0703,0.0692,0.0651,0.0682,0.0743,0.0607,0.0606,0.059,0.077,0.0719,0.0723,0.0729,0.0733,0.0736,0.0679,0,0.0436,0.0497,0.0516,0.0585,0.0623,0.064,0.0684,0.0725,0.0738,0.0792,0.0807,0.0835,0.0775,0.078,0.0815,0.0765,0.0783,0.0758,0.0677,0.0675,0.0636,0.0741,0.0757,0.071,0.0688,0.069,0.0691,0,0.0469,0.051,0.0579,0.0666,0.0687,0.0725,0.0812,0.0851,0.0927,0.0941,0.0999,0.0991,0.1052,0.0978,0.0983,0.0963,0.0892,0.0845,0.0841,0.0772,0.0648,0.0629,0.0729,0.058,0.0707,0.0705,0.0704,0,0.0482,0.0562,0.0622,0.0649,0.0732,0.078,0.0828,0.0901,0.0957,0.1045,0.1089,0.1148,0.1167,0.1142,0.1048,0.1016,0.1032,0.0965,0.0852,0.0842,0.0835,0.0821,0.081,0.099,0.099,0.099,0.099,0,0.0517,0.057,0.0636,0.0674,0.0766,0.0814,0.092,0.0967,0.1061,0.1151,0.1173,0.1243,0.1214,0.1209,0.1113,0.1025,0.108,0.091,0.086,0.087,0.0861,0.0711,0.0646,0.0988,0.0988,0.0989,0.0989,0,0.0528,0.0567,0.0647,0.0739,0.0774,0.084,0.0967,0.1046,0.1114,0.1232,0.1266,0.1328,0.1322,0.126,0.12,0.1094,0.0953,0.0958,0.094,0.0891,0.0641,0.0583,0.0585,0.0544,0.0835,0.0834,0.0833,0,0.0541,0.0577,0.068,0.0731,0.0778,0.0882,0.0961,0.106,0.1148,0.1279,0.1346,0.1381,0.1424,0.1316,0.1172,0.1023,0.0918,0.0894,0.0863,0.0674,0.0572,0.0554,0.0518,0.0866,0.0866,0.0865,0.0865,0,0.0569,0.0598,0.0665,0.0756,0.0843,0.0959,0.1079,0.1153,0.1277,0.1365,0.1475,0.1519,0.1443,0.1343,0.1144,0.1027,0.083,0.0876,0.0725,0.0661,0.0605,0.0523,0.0791,0.0861,0.0862,0.0862,0.0862,0.0862,0.0587,0.0631,0.0706,0.0795,0.0899,0.103,0.1119,0.1241,0.1373,0.1507,0.1554,0.1629,0.1479,0.1238,0.1067,0.0741,0.077,0.0617,0.0573,0.0577,0.054,0.077,0.0759,0.0759,0.0759,0.0759,0.0758,0,0.0612,0.0663,0.0743,0.0862,0.0971,0.1029,0.1197,0.128,0.1413,0.1543,0.1632,0.1617,0.1387,0.1138,0.0729,0.0484,0.0436,0.0342,0.0328,0.0313,0.0551,0.0551,0.0445,0.0445,0.0445,0.0445,0.0445,0.0445,0.0631,0.0703,0.0741,0.09,0.0987,0.1125,0.1218,0.1329,0.1443,0.1559,0.1622,0.1682,0.1478,0.0778,0.0291,0.0197,0.0052,0.0041,-0.0052,0.0083,0.0105,0.0126,0.011,-0.0087,-0.0088,-0.0243,-0.0245,-0.0247]}],[{"header":{"parameterUnit":"m.s-1","parameterCategory":2,"la1":30.2991,"la2":30.254,"lo1":-89.0895,"lo2":-89.0444,"dy":0.0017,"dx":0.0017,"nx":28,"ny":28,"refTime":"2023-10-22T21:00:00:Z","depth":"2","parameterNumber":2,"parameterNumberName":"U-component_of_CURRENTS"},"data":[0,0,0,0,0,0,0,0,0,0,0,0,0,0,0,0,0,0,0,0,0,0,0,0,0,0,0,0,0,0,0,0,0,0,0,0,0,0,0,0,0,0,0,0,0,0,0,0,0,0,0,0,0,0,0,0,0,0,0.2324,0.2325,0,0.2318,0.2318,0.2318,0.2319,0.2319,0.232,0.232,0.2333,0.2333,0.2333,0,0,0,0,0,0,0,0,0,0,0,0,0,0.2308,0.2308,0.2324,0.2325,0.2325,0.2318,0.2318,0.2318,0.2319,0.2319,0.232,0.232,0.2333,0.2333,0.2333,0,0,0,0,0,0,0,0,0,0,0,0,0,0.2306,0.2308,0.2324,0.2327,0.2328,0.2318,0.2318,0.2317,0.2319,0.2319,0.232,0.232,0.2333,0.2333,0.2333,0.2319,0,0,0.2332,0.2332,0,0,0,0,0,0,0,0,0.2306,0.2306,0.2327,0.2327,0.2328,0.2323,0.2317,0.232,0.2318,0.2318,0.232,0.2321,0.2333,0.2333,0.2325,0.2319,0.232,0.2332,0.2332,0.2332,0.2332,0,0,0,0,0,0,0,0.2307,0.2307,0.2318,0.2327,0.2328,0.2319,0.232,0.2317,0.232,0.2318,0.2319,0.2324,0.2333,0.2325,0.2326,0.232,0.2332,0.2332,0.2332,0.2332,0.2351,0.2352,0,0,0,0,0,0,0.2315,0.2307,0.2318,0.2318,0.2323,0.232,0.232,0.2321,0.2319,0.2321,0.2324,0.2324,0.2325,0.2326,0.2326,0.2351,0.2332,0.2332,0.2332,0.235,0.2351,0.2352,0,0,0,0,0,0,0.2315,0.2316,0.2319,0.2316,0.2316,0.232,0.2321,0.2321,0.233,0.2324,0.2325,0.2336,0.2326,0.2326,0.2339,0.235,0.2332,0.2332,0.235,0.2351,0.2351,0.2374,0,0,0,0,0,0,0.2314,0.2316,0.2328,0.2316,0.2317,0.2321,0.232,0.232,0.2333,0.2334,0.2334,0.2335,0.2326,0.234,0.2339,0.235,0.2332,0.2349,0.235,0.2351,0.2373,0.2376,0.2379,0,0,0,0,0,0.2314,0.2319,0.2328,0.233,0.233,0.2322,0.2321,0.2323,0.2333,0.2334,0.2341,0.2336,0.2346,0.234,0.2339,0.235,0.2349,0.235,0.2351,0.2372,0.2375,0.2378,0,0,0,0,0,0,0.2322,0.232,0.2329,0.2337,0.2337,0.2324,0.2329,0.2333,0.2338,0.2346,0.2341,0.2342,0.2356,0.2352,0.2345,0.2359,0.2347,0.2348,0.2363,0.2366,0.2369,0.2368,0.2332,0,0,0,0,0,0.233,0.2332,0.2332,0.234,0.2342,0.2341,0.2343,0.2345,0.2345,0.2348,0.2348,0.2353,0.2357,0.2362,0.236,0.2369,0.2393,0.2376,0.2379,0.2381,0.238,0.2434,0.2441,0.2356,0.2356,0.2356,0,0,0.2337,0.2337,0.234,0.2342,0.2343,0.2343,0.2343,0.2348,0.2353,0.2349,0.2358,0.2362,0.2362,0.2369,0.2375,0.237,0.2421,0.2383,0.2385,0.2382,0.2436,0.2444,0.2452,0.2357,0.2357,0.2356,0,0,0.2343,0.2352,0.2355,0.2355,0.2362,0.2356,0.2363,0.236,0.2365,0.2373,0.2375,0.2389,0.2388,0.2391,0.2393,0.2412,0.2433,0.2414,0.2427,0.248,0.2487,0.2494,0.255,0.2562,0.2416,0.2416,0.2416,0,0.2363,0.2359,0.2356,0.2359,0.2363,0.2365,0.237,0.2369,0.2372,0.2385,0.2381,0.24,0.2397,0.2418,0.2419,0.2418,0.2455,0.2414,0.2484,0.2492,0.2499,0.2554,0.2567,0.2418,0.2417,0.2417,0.2417,0,0.2361,0.2369,0.237,0.2373,0.2374,0.2378,0.2379,0.2388,0.2396,0.2401,0.2426,0.2424,0.2444,0.2439,0.2431,0.2475,0.249,0.2483,0.2477,0.2509,0.2565,0.2578,0.2419,0.2419,0.2419,0.2418,0,0,0.2389,0.2374,0.2381,0.2382,0.2384,0.2382,0.2395,0.2408,0.2431,0.2433,0.2466,0.2463,0.2479,0.2482,0.2483,0.251,0.2587,0.2516,0.2518,0.2574,0.2718,0.2581,0.2583,0.2601,0.2603,0.2604,0.2744,0,0.2398,0.2396,0.2391,0.2398,0.2394,0.2402,0.2414,0.2429,0.2446,0.2475,0.2487,0.2516,0.2493,0.2516,0.254,0.2574,0.262,0.255,0.2676,0.268,0.2557,0.2592,0.2293,0.2378,0.2756,0.2759,0.276,0,0.2404,0.2398,0.2403,0.2405,0.2409,0.242,0.2449,0.246,0.2501,0.252,0.2555,0.2574,0.2617,0.2593,0.2682,0.2645,0.2688,0.2707,0.2713,0.2582,0.2565,0.2405,0.2387,0.2782,0.278,0.2778,0.2777,0,0.2407,0.2412,0.2413,0.2413,0.2416,0.2436,0.2448,0.2482,0.2501,0.2564,0.2594,0.2649,0.268,0.2741,0.2779,0.2753,0.2875,0.2852,0.2775,0.2768,0.2532,0.2498,0.2932,0.2932,0.2931,0.2931,0.293,0,0.2406,0.2412,0.2419,0.2417,0.2436,0.2443,0.2477,0.2503,0.2547,0.2573,0.2627,0.2658,0.2718,0.2785,0.2825,0.2834,0.293,0.2782,0.279,0.2531,0.2497,0.2852,0.2841,0.2936,0.2935,0.2934,0.2933,0,0.2402,0.2404,0.2409,0.2425,0.2433,0.2451,0.2481,0.2503,0.2555,0.2596,0.2623,0.2689,0.2761,0.2824,0.2919,0.2871,0.2914,0.2905,0.2592,0.2557,0.2767,0.2756,0.2828,0.2824,0.2821,0.2818,0.2816,0,0.2394,0.2395,0.2416,0.2423,0.2433,0.2455,0.2468,0.2505,0.2525,0.2602,0.2619,0.2703,0.2699,0.2778,0.2704,0.2732,0.2893,0.2516,0.238,0.2753,0.2756,0.2749,0.2742,0.2105,0.2097,0.209,0.2085,0,0.2381,0.2401,0.2404,0.2417,0.2431,0.2435,0.2458,0.2467,0.251,0.2535,0.2581,0.2583,0.2559,0.2389,0.2379,0.2364,0.2471,0.2381,0.288,0.2153,0.2076,0.2076,0.2093,0.2028,0.2034,0.2038,0.2041,0.2043,0.2384,0.2386,0.2397,0.2405,0.2415,0.2407,0.2389,0.2386,0.2385,0.2308,0.2398,0.2255,0.2189,0.1948,0.1927,0.1916,0.2078,0.2014,0.2033,0.2059,0.1925,0.1844,0.173,0.1734,0.1737,0.174,0.1743,0,0.2365,0.2372,0.2378,0.2369,0.2351,0.238,0.2366,0.2264,0.2201,0.2083,0.2003,0.1683,0.1497,0.1538,0.1359,0.1343,0.1321,0.1365,0.1323,0.1377,0.1426,0.1261,0.089,0.0888,0.0887,0.0886,0,0,0.2358,0.234,0.2332,0.2295,0.23,0.2247,0.2227,0.2031,0.1894,0.1609,0.1439,0.1303,0.138,0.1075,0.104,0.0962,0.1173,0.0916,0.1579,0.1577,0.1625,0.1757,0.1557,0,0,0,0,0]},{"header":{"parameterUnit":"m.s-1","parameterCategory":2,"la1":30.2991,"la2":30.254,"lo1":-89.0895,"lo2":-89.0444,"dy":0.0017,"dx":0.0017,"nx":28,"ny":28,"refTime":"2023-10-22T21:00:00:Z","depth":"2","parameterNumber":3,"parameterNumberName":"V-component_of_CURRENTS"},"data":[0,0,0,0,0,0,0,0,0,0,0,0,0,0,0,0,0,0,0,0,0,0,0,0,0,0,0,0,0,0,0,0,0,0,0,0,0,0,0,0,0,0,0,0,0,0,0,0,0,0,0,0,0,0,0,0,0,0,-0.0588,-0.0589,0,-0.0649,-0.065,-0.065,-0.0656,-0.0656,-0.0656,-0.0656,-0.0676,-0.0677,-0.0678,0,0,0,0,0,0,0,0,0,0,0,0,0,-0.0474,-0.0475,-0.0588,-0.0589,-0.059,-0.0649,-0.065,-0.065,-0.0657,-0.0656,-0.0656,-0.0655,-0.0676,-0.0677,-0.0678,0,0,0,0,0,0,0,0,0,0,0,0,0,-0.0525,-0.0476,-0.0588,-0.0603,-0.0605,-0.0649,-0.065,-0.065,-0.0657,-0.0656,-0.0656,-0.0655,-0.0675,-0.0677,-0.0678,-0.0695,0,0,-0.0682,-0.0682,0,0,0,0,0,0,0,0,-0.0522,-0.0528,-0.06,-0.0602,-0.0605,-0.0648,-0.0617,-0.0665,-0.0657,-0.0633,-0.0656,-0.0655,-0.0665,-0.0667,-0.0676,-0.0696,-0.0697,-0.0682,-0.0682,-0.0683,-0.0683,0,0,0,0,0,0,0,-0.0518,-0.0526,-0.0609,-0.0601,-0.0604,-0.0606,-0.0612,-0.0626,-0.0648,-0.0635,-0.0637,-0.0649,-0.0666,-0.0674,-0.0676,-0.0697,-0.0682,-0.0683,-0.0684,-0.0684,-0.0683,-0.0682,0,0,0,0,0,0,-0.0519,-0.0523,-0.0607,-0.0611,-0.0565,-0.0609,-0.0616,-0.0632,-0.0649,-0.0652,-0.065,-0.065,-0.0672,-0.0675,-0.0677,-0.0668,-0.0683,-0.0684,-0.0685,-0.0683,-0.0682,-0.0682,0,0,0,0,0,0,-0.0516,-0.0526,-0.0604,-0.057,-0.0581,-0.0612,-0.0629,-0.0633,-0.0641,-0.0661,-0.0662,-0.0654,-0.0672,-0.0675,-0.0678,-0.067,-0.0685,-0.0686,-0.0684,-0.0683,-0.0682,-0.067,0,0,0,0,0,0,-0.0513,-0.0524,-0.0537,-0.0571,-0.0583,-0.0618,-0.063,-0.0635,-0.0652,-0.0652,-0.0665,-0.0667,-0.0672,-0.0676,-0.0679,-0.0672,-0.0687,-0.0685,-0.0684,-0.0682,-0.0671,-0.0668,-0.0666,0,0,0,0,0,-0.0508,-0.0516,-0.0537,-0.0548,-0.0599,-0.0618,-0.0624,-0.0642,-0.0652,-0.0648,-0.0658,-0.0666,-0.0668,-0.0677,-0.068,-0.0673,-0.0686,-0.0684,-0.0682,-0.0672,-0.0669,-0.0666,0,0,0,0,0,0,-0.0473,-0.0519,-0.0542,-0.0566,-0.0589,-0.062,-0.0625,-0.0643,-0.065,-0.0648,-0.0665,-0.0667,-0.0663,-0.0669,-0.0678,-0.0665,-0.0675,-0.0674,-0.0666,-0.0663,-0.066,-0.065,-0.0688,0,0,0,0,0,-0.0475,-0.0491,-0.0535,-0.0552,-0.0566,-0.0599,-0.0612,-0.0623,-0.0638,-0.0641,-0.0653,-0.0659,-0.066,-0.0662,-0.0663,-0.0666,-0.0669,-0.066,-0.0657,-0.0655,-0.0647,-0.067,-0.0669,-0.0676,-0.0676,-0.0676,0,0,-0.0468,-0.0495,-0.0507,-0.0546,-0.0568,-0.0572,-0.0603,-0.0616,-0.0616,-0.0642,-0.0642,-0.0652,-0.0657,-0.0652,-0.0651,-0.0658,-0.0646,-0.0653,-0.0651,-0.0644,-0.0668,-0.0668,-0.0668,-0.0675,-0.0675,-0.0675,0,0,-0.0448,-0.0487,-0.0489,-0.0505,-0.0537,-0.0553,-0.0557,-0.0588,-0.0598,-0.0607,-0.0618,-0.0626,-0.0634,-0.0636,-0.0638,-0.0623,-0.0631,-0.0618,-0.0602,-0.0624,-0.0624,-0.0625,-0.0597,-0.0595,-0.0619,-0.0619,-0.0619,0,-0.0446,-0.0452,-0.0491,-0.0491,-0.0499,-0.0541,-0.0534,-0.0553,-0.0578,-0.0582,-0.0598,-0.0612,-0.0625,-0.0619,-0.0611,-0.0619,-0.0616,-0.0617,-0.0623,-0.0623,-0.0624,-0.0596,-0.0594,-0.0618,-0.0618,-0.0618,-0.0618,0,-0.0417,-0.0427,-0.0427,-0.0443,-0.0452,-0.0452,-0.0484,-0.0493,-0.0517,-0.0536,-0.0545,-0.0572,-0.0577,-0.0585,-0.0597,-0.0598,-0.0587,-0.0618,-0.0635,-0.0623,-0.0593,-0.0591,-0.0617,-0.0617,-0.0617,-0.0617,0,0,-0.0416,-0.0409,-0.0413,-0.0402,-0.0425,-0.0425,-0.0429,-0.0442,-0.0434,-0.0477,-0.0468,-0.0502,-0.0526,-0.0529,-0.0551,-0.0578,-0.0578,-0.0597,-0.0599,-0.0576,-0.059,-0.0503,-0.0492,-0.0618,-0.0618,-0.0619,-0.0557,0,-0.0389,-0.036,-0.037,-0.0344,-0.0331,-0.0361,-0.0354,-0.037,-0.039,-0.039,-0.0443,-0.0439,-0.0502,-0.0497,-0.0539,-0.0561,-0.0577,-0.0589,-0.0599,-0.0598,-0.053,-0.0489,-0.0532,-0.0475,-0.0556,-0.0555,-0.0555,0,-0.0366,-0.0345,-0.0309,-0.0281,-0.028,-0.0271,-0.0262,-0.026,-0.0279,-0.0292,-0.0322,-0.0354,-0.0385,-0.0445,-0.0501,-0.0506,-0.0543,-0.0574,-0.0573,-0.0496,-0.0509,-0.0506,-0.0469,-0.0552,-0.0553,-0.0553,-0.0553,0,-0.0331,-0.0307,-0.0268,-0.0262,-0.0241,-0.0232,-0.0224,-0.0233,-0.0219,-0.0227,-0.0208,-0.0269,-0.0275,-0.0356,-0.0417,-0.0462,-0.0461,-0.0534,-0.0487,-0.048,-0.0518,-0.0513,-0.0575,-0.0575,-0.0576,-0.0576,-0.0576,0,-0.0296,-0.0272,-0.0248,-0.0227,-0.0181,-0.0187,-0.0145,-0.0147,-0.0133,-0.0094,-0.0155,-0.012,-0.0259,-0.0277,-0.0365,-0.0385,-0.0421,-0.0459,-0.0459,-0.0508,-0.0503,-0.0583,-0.0585,-0.0573,-0.0574,-0.0574,-0.0575,0,-0.0267,-0.0252,-0.0207,-0.0174,-0.0163,-0.0133,-0.0094,-0.0059,-0.005,0.0003,0.0008,-0.0005,-0.0005,-0.0105,-0.0192,-0.0283,-0.0331,-0.0332,-0.0342,-0.0344,-0.0352,-0.0354,-0.0289,-0.0286,-0.0283,-0.028,-0.0278,0,-0.0241,-0.0215,-0.0169,-0.014,-0.0126,-0.0083,-0.0047,-0.0026,0.0021,0.0088,0.0131,0.0156,0.0213,0.0156,-0.0018,-0.0114,-0.0174,-0.0209,-0.0317,-0.0315,-0.0323,-0.033,-0.0335,-0.0359,-0.0358,-0.0357,-0.0356,0,-0.0191,-0.0184,-0.0142,-0.0086,-0.0045,0.0008,0.0063,0.0121,0.0165,0.0249,0.0375,0.0437,0.0372,0.0274,0.0139,0.0037,-0.0203,-0.0186,-0.0196,-0.0406,-0.0372,-0.0382,-0.0388,-0.0346,-0.0347,-0.0348,-0.0349,-0.0349,-0.0154,-0.0119,-0.0071,-0.002,0.0029,0.0101,0.0161,0.0264,0.0389,0.052,0.0552,0.0636,0.0463,0.0305,0.0165,-0.0041,-0.0066,-0.0187,-0.0195,-0.0204,-0.0204,-0.0165,-0.0098,-0.0098,-0.0098,-0.0097,-0.0097,0,-0.0092,-0.0063,-0.0007,0.0064,0.0126,0.0128,0.0238,0.0337,0.0527,0.0629,0.0755,0.0628,0.0536,0.0357,0.0049,-0.0097,-0.0186,-0.0131,-0.025,-0.0258,-0.0266,-0.0275,-0.0185,-0.0185,-0.0185,-0.0185,0,0,-0.0053,0.0013,0.0037,0.014,0.0178,0.0259,0.0323,0.0508,0.0612,0.0774,0.0794,0.0797,0.0566,0.0342,0.0124,-0.0032,-0.0109,-0.0061,0.0013,-0.0113,-0.0118,-0.0303,-0.0324,0,0,0,0,0]}],[{"header":{"parameterUnit":"m.s-1","parameterCategory":2,"la1":30.2991,"la2":30.254,"lo1":-89.0895,"lo2":-89.0444,"dy":0.0017,"dx":0.0017,"nx":28,"ny":28,"refTime":"2023-10-22T21:00:00:Z","depth":"4","parameterNumber":2,"parameterNumberName":"U-component_of_CURRENTS"},"data":[0,0,0,0,0,0,0,0,0,0,0,0,0,0,0,0,0,0,0,0,0,0,0,0,0,0,0,0,0,0,0,0,0,0,0,0,0,0,0,0,0,0,0,0,0,0,0,0,0,0,0,0,0,0,0,0,0,0,0.0099,0.0098,0,0.0116,0.0117,0.0118,0.024,0.0242,0.0244,0.0245,0.0421,0.0424,0.0427,0,0,0,0,0,0,0,0,0,0,0,0,0,0.0155,0.0155,0.0099,0.0098,0.0097,0.0116,0.0117,0.0119,0.024,0.0242,0.0244,0.0246,0.042,0.0423,0.0427,0,0,0,0,0,0,0,0,0,0,0,0,0,0.016,0.0155,0.0099,0.015,0.0153,0.0115,0.0117,0.0119,0.024,0.0242,0.0245,0.0247,0.0419,0.0423,0.0427,0.0403,0,0,0.0441,0.0443,0,0,0,0,0,0,0,0,0.016,0.016,0.0143,0.0146,0.015,0.0167,0.02,0.0217,0.0239,0.0221,0.0246,0.0249,0.034,0.0351,0.0365,0.0412,0.0419,0.0442,0.0445,0.0447,0.0448,0,0,0,0,0,0,0,0.016,0.016,0.012,0.0142,0.0146,0.0165,0.017,0.0205,0.0279,0.0223,0.0229,0.0208,0.0345,0.0361,0.0371,0.0422,0.0442,0.0446,0.0449,0.045,0.0667,0.0669,0,0,0,0,0,0,0.0128,0.0159,0.0119,0.0119,0.0146,0.0161,0.0167,0.017,0.0276,0.0289,0.0205,0.0213,0.0351,0.0365,0.0377,0.0567,0.0447,0.0451,0.0453,0.0664,0.0667,0.067,0,0,0,0,0,0,0.0129,0.0125,0.0118,0.0127,0.0126,0.0156,0.0158,0.0168,0.023,0.0258,0.0278,0.026,0.0354,0.0371,0.0482,0.0567,0.0453,0.0457,0.066,0.0665,0.0669,0.0811,0,0,0,0,0,0,0.0131,0.0126,0.0129,0.0126,0.0124,0.0139,0.0154,0.0166,0.0203,0.0215,0.0309,0.0326,0.0357,0.0475,0.0486,0.0571,0.0461,0.0656,0.0662,0.0667,0.0802,0.0819,0.0834,0,0,0,0,0,0.0134,0.0132,0.013,0.0125,0.0124,0.0139,0.0144,0.0181,0.0203,0.0246,0.0325,0.0325,0.0519,0.0481,0.0494,0.0582,0.0654,0.066,0.0667,0.0795,0.0816,0.0834,0,0,0,0,0,0,0.0156,0.0141,0.0141,0.0135,0.0149,0.0156,0.0178,0.0197,0.0287,0.0327,0.0362,0.0385,0.0515,0.0517,0.0474,0.0658,0.0586,0.0595,0.0679,0.0699,0.0714,0.0675,0.0464,0,0,0,0,0,0.0153,0.0161,0.0147,0.0149,0.0156,0.0173,0.0184,0.0224,0.0278,0.0322,0.0385,0.0461,0.0539,0.0596,0.0656,0.0749,0.0698,0.0812,0.0828,0.0842,0.0818,0.0822,0.0836,0.0693,0.0693,0.0692,0,0,0.0155,0.0149,0.0151,0.0155,0.0171,0.0193,0.0195,0.0243,0.029,0.0325,0.0443,0.0519,0.0574,0.0701,0.0758,0.0725,0.0859,0.085,0.0862,0.083,0.0831,0.0844,0.0856,0.0697,0.0696,0.0696,0,0,0.0156,0.0169,0.0172,0.02,0.0226,0.024,0.026,0.0309,0.0369,0.0475,0.0525,0.0641,0.0753,0.0818,0.0859,0.0983,0.0939,0.1027,0.1089,0.1097,0.1107,0.1116,0.1076,0.108,0.1041,0.1042,0.1042,0,0.0164,0.0169,0.0179,0.0203,0.0226,0.0264,0.0296,0.0349,0.0442,0.0496,0.0539,0.0732,0.0798,0.0922,0.1001,0.102,0.1001,0.1019,0.1115,0.1123,0.1129,0.1086,0.1088,0.1049,0.1048,0.1048,0.1047,0,0.0174,0.0194,0.021,0.0249,0.0277,0.0333,0.0379,0.046,0.0539,0.059,0.0753,0.0859,0.0967,0.1033,0.1072,0.1177,0.1141,0.113,0.1061,0.1152,0.1101,0.1101,0.106,0.1058,0.1055,0.1053,0,0,0.0163,0.0206,0.0218,0.0251,0.0328,0.0355,0.0443,0.0521,0.0587,0.0727,0.0809,0.1004,0.1071,0.1118,0.1193,0.123,0.1295,0.1227,0.1224,0.1175,0.1288,0.1157,0.1143,0.1319,0.132,0.132,0.1235,0,0.018,0.0224,0.0243,0.0314,0.0348,0.0424,0.049,0.0582,0.0676,0.0773,0.0899,0.1025,0.1096,0.1198,0.1246,0.1289,0.1301,0.1316,0.1215,0.121,0.1074,0.1141,0.1323,0.1235,0.1235,0.1234,0.1234,0,0.019,0.0222,0.028,0.036,0.0383,0.044,0.0566,0.0636,0.0761,0.0848,0.0981,0.106,0.1193,0.1217,0.1296,0.1314,0.1308,0.1313,0.1309,0.1125,0.1078,0.1123,0.1233,0.1233,0.1233,0.1233,0.1233,0,0.0178,0.0253,0.0303,0.0342,0.043,0.0497,0.0564,0.0682,0.0757,0.0904,0.0974,0.1107,0.12,0.1229,0.1263,0.1306,0.1264,0.1308,0.1158,0.1146,0.1223,0.1214,0.13,0.13,0.1301,0.1301,0.1301,0,0.0197,0.0236,0.032,0.0353,0.0439,0.0516,0.0628,0.0707,0.0832,0.0895,0.1026,0.1086,0.1216,0.1214,0.1229,0.117,0.1231,0.1152,0.112,0.1287,0.1287,0.1222,0.1215,0.1298,0.1298,0.1299,0.1299,0,0.0175,0.0223,0.0275,0.0382,0.0428,0.0501,0.0653,0.0733,0.0853,0.093,0.0987,0.1098,0.1108,0.1126,0.1142,0.1118,0.1071,0.1011,0.1133,0.1112,0.0961,0.0963,0.0884,0.0879,0.0875,0.0871,0.0868,0,0.0158,0.0192,0.0283,0.0333,0.0393,0.0522,0.0606,0.0742,0.0793,0.091,0.0909,0.0974,0.1017,0.0923,0.0956,0.09,0.0894,0.0861,0.0983,0.0944,0.0922,0.093,0.0936,0.0861,0.086,0.0858,0.0857,0,0.0133,0.0171,0.0211,0.0309,0.0399,0.0494,0.0601,0.063,0.075,0.0843,0.086,0.0884,0.0844,0.0859,0.0782,0.0755,0.0901,0.0816,0.0828,0.0944,0.0914,0.0899,0.091,0.0842,0.0844,0.0845,0.0846,0,0.0105,0.0135,0.0198,0.029,0.0365,0.0432,0.0512,0.0579,0.0646,0.0741,0.0726,0.0768,0.0828,0.0772,0.0701,0.0658,0.0698,0.0724,0.0743,0.076,0.0756,0.0703,0.0528,0,0,0,0,0,0.0096,0.014,0.0199,0.0272,0.0332,0.0405,0.048,0.0553,0.0619,0.0613,0.0682,0.0644,0.0631,0.0646,0.0579,0.0614,0.0666,0.0531,0.0699,0.0757,0.0774,0.0781,0,0,0,0,0,0,0.0096,0.0136,0.0178,0.0224,0.0291,0.0373,0.0425,0.0494,0.0484,0.0555,0.0542,0.0614,0.0584,0.0664,0.0577,0.057,0.0663,0.0549,0.0547,0.0747,0.0763,0.0777,0.079,0,0,0,0,0]},{"header":{"parameterUnit":"m.s-1","parameterCategory":2,"la1":30.2991,"la2":30.254,"lo1":-89.0895,"lo2":-89.0444,"dy":0.0017,"dx":0.0017,"nx":28,"ny":28,"refTime":"2023-10-22T21:00:00:Z","depth":"4","parameterNumber":3,"parameterNumberName":"V-component_of_CURRENTS"},"data":[0,0,0,0,0,0,0,0,0,0,0,0,0,0,0,0,0,0,0,0,0,0,0,0,0,0,0,0,0,0,0,0,0,0,0,0,0,0,0,0,0,0,0,0,0,0,0,0,0,0,0,0,0,0,0,0,0,0,0.0425,0.0425,0,0.045,0.045,0.045,0.0498,0.0499,0.0501,0.0502,0.0437,0.0434,0.0431,0,0,0,0,0,0,0,0,0,0,0,0,0,0.0386,0.0386,0.0425,0.0425,0.0426,0.045,0.045,0.045,0.0498,0.0499,0.0501,0.0502,0.0438,0.0434,0.0431,0,0,0,0,0,0,0,0,0,0,0,0,0,0.0404,0.0386,0.0424,0.0454,0.0457,0.045,0.045,0.045,0.0498,0.0499,0.0501,0.0503,0.0439,0.0435,0.043,0.037,0,0,0.0418,0.0416,0,0,0,0,0,0,0,0,0.0403,0.0405,0.0449,0.0452,0.0456,0.0475,0.0413,0.0419,0.0497,0.048,0.0502,0.0504,0.0441,0.0437,0.0436,0.0367,0.0364,0.0417,0.0415,0.0413,0.0412,0,0,0,0,0,0,0,0.0401,0.0404,0.0432,0.045,0.0454,0.0455,0.046,0.0414,0.0447,0.0482,0.0486,0.0492,0.0442,0.044,0.0434,0.0363,0.0417,0.0414,0.0411,0.0409,0.0269,0.0268,0,0,0,0,0,0,0.0403,0.0403,0.0431,0.0433,0.0436,0.0455,0.046,0.0465,0.045,0.045,0.049,0.0494,0.0446,0.0439,0.0432,0.0409,0.0413,0.0409,0.0407,0.027,0.0269,0.0268,0,0,0,0,0,0,0.0402,0.0405,0.043,0.042,0.0424,0.0454,0.0459,0.0465,0.049,0.0458,0.0457,0.0514,0.0447,0.0438,0.0416,0.0405,0.0407,0.0403,0.0272,0.027,0.0268,0.0329,0,0,0,0,0,0,0.04,0.0404,0.0413,0.042,0.0425,0.0446,0.0458,0.0464,0.0491,0.0497,0.0476,0.0471,0.0448,0.0423,0.0412,0.0399,0.04,0.0273,0.0271,0.0269,0.0329,0.033,0.0331,0,0,0,0,0,0.0399,0.041,0.0413,0.0417,0.0434,0.0447,0.0449,0.0474,0.0491,0.0503,0.0491,0.0474,0.04,0.0419,0.0407,0.0392,0.0274,0.0272,0.0269,0.0328,0.033,0.0331,0,0,0,0,0,0,0.0396,0.0416,0.042,0.0436,0.0447,0.0456,0.0474,0.0484,0.0486,0.0505,0.0466,0.0459,0.0432,0.0397,0.0419,0.034,0.0329,0.0324,0.0379,0.0379,0.038,0.0391,0.0396,0,0,0,0,0,0.0396,0.0419,0.0425,0.0442,0.0448,0.0462,0.0473,0.0498,0.0498,0.0505,0.048,0.0447,0.0402,0.0386,0.0346,0.0307,0.0268,0.0283,0.0284,0.0285,0.0282,0.0212,0.0207,0.0259,0.0259,0.0259,0,0,0.04,0.0417,0.0428,0.0445,0.0457,0.0461,0.0474,0.0512,0.0517,0.0491,0.0485,0.0454,0.0393,0.0357,0.0339,0.0333,0.0252,0.0282,0.0284,0.028,0.0208,0.0203,0.0199,0.0257,0.0257,0.0258,0,0,0.0414,0.0433,0.0448,0.0463,0.0497,0.0494,0.0507,0.0523,0.0536,0.0527,0.05,0.0471,0.0408,0.0364,0.033,0.0304,0.0261,0.0284,0.0297,0.023,0.0225,0.0221,0.0183,0.0175,0.0283,0.0283,0.0283,0,0.0417,0.0438,0.0454,0.0473,0.0483,0.0505,0.0514,0.052,0.0528,0.0519,0.0538,0.0439,0.0407,0.0333,0.0334,0.0308,0.0271,0.0307,0.0234,0.0228,0.0223,0.0185,0.0175,0.0286,0.0285,0.0285,0.0285,0,0.0435,0.0457,0.0473,0.0491,0.0495,0.0527,0.0526,0.0534,0.0544,0.0537,0.0498,0.0458,0.0397,0.0375,0.0353,0.0284,0.0273,0.0249,0.0241,0.0222,0.0182,0.0171,0.029,0.0289,0.0288,0.0287,0,0,0.0433,0.0475,0.0485,0.0494,0.0521,0.0525,0.0523,0.0511,0.0503,0.0507,0.0471,0.0419,0.0411,0.0369,0.0331,0.028,0.0229,0.0258,0.0253,0.0239,0.0097,0.0108,0.0097,0.0194,0.0192,0.019,0.0093,0,0.0445,0.0481,0.0491,0.0507,0.0517,0.0526,0.0511,0.0509,0.05,0.047,0.0438,0.0402,0.0401,0.0384,0.0331,0.0248,0.0198,0.0259,0.01,0.0096,0.0123,0.0083,0.0183,0.0084,0.0081,0.0079,0.0078,0,0.046,0.0482,0.0509,0.0515,0.0517,0.0526,0.0505,0.05,0.0464,0.0461,0.0427,0.0398,0.0336,0.0339,0.0206,0.0246,0.0179,0.0121,0.0115,0.0094,0.0085,0.0097,0.0057,0.0059,0.006,0.0062,0.0063,0,0.0453,0.0489,0.0512,0.0526,0.0532,0.0541,0.0536,0.0509,0.0504,0.0465,0.0452,0.0375,0.0346,0.0248,0.0157,0.0176,-0.0001,0.0006,-0.0051,-0.005,-0.0053,-0.0048,-0.0104,-0.0104,-0.0104,-0.0104,-0.0103,0,0.0463,0.0479,0.0528,0.0542,0.0554,0.056,0.0565,0.0542,0.0525,0.0497,0.0462,0.0415,0.0321,0.0217,0.0132,0.0009,-0.0021,-0.0058,-0.0085,-0.0024,-0.0014,-0.006,-0.0054,-0.0107,-0.0107,-0.0106,-0.0105,0,0.0456,0.0491,0.0516,0.0548,0.0558,0.0576,0.0599,0.0598,0.0583,0.0542,0.0536,0.0446,0.0322,0.0208,0.0037,-0.0012,-0.014,-0.0184,-0.0101,-0.012,-0.0131,-0.0121,-0.024,-0.0241,-0.0241,-0.0242,-0.0242,0,0.0451,0.0477,0.0527,0.0556,0.0585,0.0623,0.0639,0.0632,0.0612,0.0547,0.0502,0.0404,0.033,0.0105,-0.0008,-0.0174,-0.0193,-0.024,-0.0185,-0.0136,-0.0151,-0.0139,-0.0129,-0.0243,-0.0243,-0.0243,-0.0243,0,0.0434,0.0475,0.0492,0.056,0.0601,0.0629,0.064,0.0623,0.059,0.0587,0.0475,0.0384,0.0235,0.0095,-0.0036,-0.0157,-0.0195,-0.0246,-0.0245,-0.0193,-0.0141,-0.0153,-0.0141,-0.0245,-0.0245,-0.0245,-0.0245,0,0.0422,0.0442,0.0488,0.0544,0.0589,0.06,0.0617,0.0587,0.0563,0.0485,0.0446,0.0319,0.0256,0.0098,-0.0036,-0.0137,-0.0142,-0.0148,-0.0152,-0.0151,-0.0087,-0.0006,-0.0104,0,0,0,0,0,0.0411,0.0432,0.0472,0.051,0.0559,0.0591,0.0586,0.0596,0.0555,0.0482,0.0467,0.0333,0.0174,0.0094,-0.0006,-0.0048,-0.0168,-0.0166,-0.0179,-0.0256,-0.0254,-0.0192,0,0,0,0,0,0,0.0398,0.0431,0.0449,0.0469,0.051,0.0541,0.0547,0.0535,0.0476,0.0445,0.0349,0.0338,0.0163,0.0239,0.0004,-0.0027,-0.0042,-0.0237,-0.0238,-0.0257,-0.0255,-0.0253,-0.0189,0,0,0,0,0]}]]